Location: Newark
(50.4348°N, 30.5552°E)
Time: 12:33:28
(UTC+00:00)

Envisat - Pass Details

Date: 16 December 2019
Orbit: 764 x 766 km, 98.1° (Epoch: 18 January)

Event Time Altitude Azimuth Distance (km) Brightness Sun altitude
Rises 17:14:45 0° 213° (SSW) 3,224 6.7 -30.6°
Reaches altitude 10° 17:17:56 10° 234° (SW) 2,303 6.1 -31.1°
Maximum altitude 17:21:04 16° 273° (W) 1,909 5.8 -31.6°
Drops below altitude 10° 17:24:12 10° 311° (NW) 2,314 6.0 -32.1°
Sets 17:27:25 0° 333° (NNW) 3,246 6.6 -32.6°
